Content
SEND FEEDBACK

Daily
Averages
Monthly
Summary
United States of America

NEW YORK - CENTRAL PARK, NEW YORK


Home > North America > United States > New York
Elevation: 14 feet     Latitude: 40 47N     Longitude: 073 58W

WEATHER
 
SELECT A DAY
Number of Records: 148,440;   Date Range: 11/1/95 - 9/22/14
 
SHARE

PRINT THIS DATA

[ ← Previous Day ]
WEATHER ALMANAC - NOVEMBER 13, 2013
[ Next Day → ]
[ °C ]   °F
Weather ElementAverageHighLow
Temperature33.9 °F39 °F (2:51 pm)28.9 °F (4:51 am)
Dewpoint12.9 °F18 °F (11:51 pm)8.1 °F (12:51 pm)
Humidity42.9 %58 % (4:51 am)28 % (2:51 pm)
Barometer30.33 in30.37 in (8:51 am)30.28 in (11:51 pm)
Wind Speed5.9 mph11.5 mph (11:51 am)
Wind Gust20.7 mph (11:51 am)
Weather ElementAverage
Visibility10 mi
Wind DirectionE (87.8 °)

Weather ElementTotal
Precipitation---
Heating Degree Days31.1 (Base 65)
Averaged from 23 records on November 13, 2013
WEATHER CONDITIONS BREAKOUT
WIND DIRECTION BREAKOUT
WEATHER BY HOUR - NOVEMBER 13, 2013
[ °C ]   °F
Local TimeTemperatureDewpointHumidityBarometerVisibilityWind DirectionWind SpeedGust SpeedPrecipitationEventsConditions
1:51 AM30.9 °F16.0 °F54 %30.29 in10.0 miVariable6.9 mphClear
2:51 AM30.0 °F16.0 °F56 %30.29 in10.0 miVariable4.6 mphScattered Clouds
3:51 AM30.0 °F16.0 °F56 %30.30 in10.0 miWNW (300°)6.9 mphMostly Cloudy
4:51 AM28.9 °F16.0 °F58 %30.30 in10.0 miVariable5.8 mph16.1 mphClear
5:51 AM28.9 °F12.9 °F51 %30.32 in10.0 miVariable4.6 mphClear
6:51 AM28.9 °F12.0 °F49 %30.34 in10.0 miVariable3.5 mphClear
7:51 AM28.9 °F12.9 °F51 %30.36 in10.0 miVariable5.8 mphClear
8:51 AM30.0 °F12.9 °F49 %30.37 in10.0 miVariable4.6 mphClear
9:51 AM32.0 °F12.0 °F44 %30.36 in10.0 miVariable4.6 mphClear
10:51 AM34.0 °F10.9 °F38 %30.35 in10.0 miVariable5.8 mphClear
11:51 AM35.1 °F9.0 °F34 %30.34 in10.0 miNW (310°)11.5 mph20.7 mphClear
12:51 PM37.0 °F8.1 °F30 %30.33 in10.0 miNorthClear
1:51 PM37.9 °F8.1 °F29 %30.32 in10.0 miVariable3.5 mphClear
2:51 PM39.0 °F8.1 °F28 %30.31 in10.0 miNW (310°)10.4 mph19.6 mphClear
3:51 PM37.9 °F9.0 °F30 %30.31 in10.0 miWest (280°)10.4 mph19.6 mphClear
4:51 PM37.0 °F10.9 °F34 %30.32 in10.0 miWNW (290°)8.1 mphClear
5:51 PM37.0 °F12.9 °F37 %30.35 in10.0 miVariable4.6 mphClear
6:51 PM36.0 °F12.9 °F39 %30.35 in10.0 miWest (280°)5.8 mphClear
7:51 PM36.0 °F14.0 °F41 %30.34 in10.0 miVariable4.6 mphClear
8:51 PM36.0 °F14.0 °F41 %30.33 in10.0 miVariable5.8 mphClear
9:51 PM36.0 °F16.0 °F44 %30.32 in10.0 miCalmClear
10:51 PM36.0 °F17.1 °F46 %30.30 in10.0 miWSW (250°)8.1 mph18.4 mphClear
11:51 PM36.0 °F18.0 °F48 %30.28 in10.0 miVariable3.5 mphClear
Hourly data recorded from KNYC, located miles away from New York - Central Park, New York







STORIES FROM OUR PARTNERS